CW0262 Weather Reports


Display with metric or nautical units.
time (UTC)temp
F
wind
direction
speed
MPH
gust
MPH
rain 1hr
in
rain 24hr
in
rain mn
in
humidity
%
barometer
mb
20260905220203 89 135 7.0 10.0 0.00 0.00 0.00 73 1010.9
20260905214703 90 123 6.0 10.0 0.00 0.00 0.00 72 1010.9
20260905214204 90 114 6.0 10.0 0.00 0.00 0.00 71 1010.9
20260905213704 91 99 6.0 9.0 0.00 0.00 0.00 72 1010.9
20260905213204 91 148 5.0 9.0 0.00 0.00 0.00 70 1011.9
20260905211203 90 122 7.0 9.0 0.00 0.00 0.00 68 1010.9
20260905210703 90 106 8.0 9.0 0.00 0.00 0.00 69 1010.9
20260905210204 91 139 7.0 13.0 0.00 0.00 0.00 68 1010.9
20260905204704 91 160 4.0 8.0 0.00 0.00 0.00 73 1010.9
20260905204204 91 117 7.0 9.0 0.00 0.00 0.00 73 1010.9
20260905203703 91 132 7.0 9.0 0.00 0.00 0.00 73 1010.9
20260905203203 91 111 7.0 9.0 0.00 0.00 0.00 73 1010.9
20260905201703 91 127 6.0 9.0 0.00 0.00 0.00 74 1010.9
20260905201203 91 172 6.0 8.0 0.00 0.00 0.00 75 1010.9
20260905194703 91 145 6.0 9.0 0.00 0.00 0.00 78 1011.9
20260905194203 91 144 7.0 10.0 0.00 0.00 0.00 78 1011.9
20260905193703 91 121 7.0 10.0 0.00 0.00 0.00 78 1011.9
20260905193203 91 148 7.0 15.0 0.00 0.00 0.00 79 1011.9
20260905191704 93 124 7.0 12.0 0.00 0.00 0.00 77 1011.9
20260905191204 93 168 7.0 9.0 0.00 0.00 0.00 77 1011.9
20260905190704 93 129 5.0 7.0 0.00 0.00 0.00 72 1011.9
20260905190204 93 306 2.0 10.0 0.00 0.00 0.00 64 1011.9
20260905184704 93 277 4.0 9.0 0.00 0.00 0.00 66 1011.9
20260905184204 93 294 6.0 9.0 0.00 0.00 0.00 69 1011.9
20260905183203 92 324 6.0 10.0 0.00 0.00 0.00 66 1011.9
20260905181703 91 250 6.0 10.0 0.00 0.00 0.00 70 1012.9
20260905181204 91 242 5.0 9.0 0.00 0.00 0.00 69 1012.9
20260905180703 92 279 5.0 10.0 0.00 0.00 0.00 69 1012.9
20260905180204 92 273 6.0 10.0 0.00 0.00 0.00 69 1012.9
20260905174704 92 255 6.0 8.0 0.00 0.00 0.00 70 1012.9
20260905174205 92 246 6.0 9.0 0.00 0.00 0.00 69 1012.9
20260905173704 92 289 7.0 10.0 0.00 0.00 0.00 69 1012.9
20260905173204 92 279 7.0 13.0 0.00 0.00 0.00 69 1012.9
20260905171704 92 250 4.0 8.0 0.00 0.00 0.00 70 1012.9
20260905171204 92 288 8.0 13.0 0.00 0.00 0.00 71 1012.9
20260905170703 92 265 6.0 10.0 0.00 0.00 0.00 73 1012.9
20260905170204 92 241 8.0 12.0 0.00 0.04 0.00 76 1012.9
20260905164704 91 251 7.0 9.0 0.00 0.08 0.00 74 1012.9
20260905163703 91 283 7.0 12.0 0.00 0.08 0.00 75 1012.9
20260905163204 91 247 7.0 12.0 0.00 0.08 0.00 76 1013.9
20260905161704 90 270 6.0 8.0 0.00 0.08 0.00 78 1013.9
20260905160703 90 278 4.0 10.0 0.00 0.08 0.00 80 1013.9
20260905160204 89 255 7.0 10.0 0.00 0.08 0.00 79 1013.9
20260905154703 90 286 6.0 10.0 0.00 0.08 0.00 78 1013.9
20260905154204 90 265 6.0 9.0 0.00 0.08 0.00 79 1013.9
20260905153703 90 273 7.0 9.0 0.00 0.08 0.00 81 1013.9
20260905153204 90 250 7.0 13.0 0.00 0.08 0.00 80 1013.9
20260905151704 89 229 6.0 9.0 0.00 0.08 0.00 86 1013.9
20260905150704 89 226 6.0 8.0 0.00 0.08 0.00 85 1013.9
20260905150204 89 180 6.0 8.0 0.00 0.08 0.00 86 1013.9
20260905144704 88 228 6.0 8.0 0.00 0.08 0.00 90 1013.9
20260905144205 88 210 5.0 8.0 0.00 0.08 0.00 90 1013.9
20260905143704 88 223 6.0 8.0 0.00 0.08 0.00 91 1013.9
20260905143203 87 221 6.0 8.0 0.00 0.08 0.00 92 1013.9
20260905141704 87 192 5.0 6.0 0.00 0.08 0.00 95 1013.9
20260905141205 87 211 6.0 8.0 0.00 0.08 0.00 95 1013.9
20260905140704 86 170 3.0 7.0 0.00 0.08 0.00 96 1013.9
20260905140205 86 244 5.0 10.0 0.00 0.08 0.00 98 1013.9
20260905134703 85 236 5.0 8.0 0.00 0.08 0.00 99 1013.9
20260905134204 85 242 5.0 8.0 0.00 0.08 0.00 100 1013.9
20260905133704 85 212 5.0 8.0 0.00 0.08 0.00 100 1013.9
20260905131704 83 235 5.0 6.0 0.00 0.08 0.00 100 1013.9
20260905131204 83 255 2.0 6.0 0.00 0.08 0.00 100 1013.9
20260905130704 83 230 3.0 7.0 0.00 0.08 0.00 100 1013.9
20260905130204 82 226 5.0 6.0 0.00 0.08 0.00 100 1013.9
20260905124704 81 227 4.0 6.0 0.00 0.08 0.00 100 1013.9
20260905124204 81 237 3.0 6.0 0.00 0.08 0.00 100 1013.9
20260905123703 81 229 1.0 3.0 0.00 0.08 0.00 100 1013.9
20260905123203 80 245 0.0 3.0 0.00 0.08 0.00 100 1013.9
20260905121704 79 247 0.0 0.0 0.00 0.08 0.00 100 1013.9
20260905121204 79 247 0.0 0.0 0.00 0.08 0.00 100 1013.9
20260905120203 78 297 0.0 0.0 0.00 0.08 0.00 100 1013.9
20260905114704 78 297 0.0 0.0 0.00 0.08 0.00 100 1013.9
20260905114204 78 317 0.0 0.0 0.00 0.08 0.00 100 1013.9
20260905113704 78 245 0.0 0.0 0.00 0.08 0.00 100 1013.9
20260905113203 78 245 0.0 0.0 0.00 0.08 0.00 100 1012.9
20260905111704 78 245 0.0 0.0 0.00 0.08 0.00 100 1012.9
20260905111204 78 248 0.0 0.0 0.00 0.08 0.00 100 1012.9
20260905110704 78 248 0.0 0.0 0.00 0.08 0.00 100 1012.9
20260905110204 78 248 0.0 0.0 0.00 0.08 0.00 100 1013.9
20260905104704 78 248 0.0 0.0 0.00 0.08 0.00 100 1012.9
20260905104203 78 248 0.0 0.0 0.00 0.08 0.00 100 1012.9
20260905103703 78 248 0.0 0.0 0.00 0.08 0.00 100 1012.9
20260905103204 78 248 0.0 0.0 0.00 0.08 0.00 100 1012.9
20260905101203 79 248 0.0 0.0 0.00 0.08 0.00 100 1012.9
20260905100704 79 248 0.0 0.0 0.00 0.08 0.00 100 1012.9
20260905100204 79 248 0.0 0.0 0.00 0.08 0.00 100 1012.9
20260905094703 78 248 0.0 0.0 0.00 0.08 0.00 100 1012.9
20260905093204 79 248 0.0 0.0 0.00 0.08 0.00 100 1012.9
20260905091703 79 248 0.0 0.0 0.00 0.08 0.00 100 1012.9
20260905091204 79 248 0.0 0.0 0.00 0.08 0.00 100 1012.9
20260905090704 79 248 0.0 0.0 0.00 0.08 0.00 100 1012.9
20260905090204 79 248 0.0 0.0 0.00 0.08 0.00 100 1012.9
20260905084704 79 248 0.0 0.0 0.00 0.08 0.00 100 1012.9
20260905084204 79 248 0.0 0.0 0.00 0.08 0.00 100 1012.9
20260905083704 79 248 0.0 0.0 0.00 0.08 0.00 100 1012.9
20260905083204 79 248 0.0 0.0 0.00 0.08 0.00 100 1012.9
20260905081704 79 248 0.0 0.0 0.00 0.08 0.00 100 1012.9
20260905081204 79 248 0.0 0.0 0.00 0.08 0.00 100 1012.9
20260905080703 79 248 0.0 0.0 0.00 0.08 0.00 100 1012.9
20260905080203 79 248 0.0 0.0 0.00 0.08 0.00 100 1012.9
20260905074704 80 248 0.0 0.0 0.00 0.08 0.00 100 1012.9
20260905074204 80 248 0.0 0.0 0.00 0.08 0.00 100 1012.9
20260905073704 80 248 0.0 0.0 0.00 0.08 0.00 100 1012.9
20260905071704 80 248 0.0 0.0 0.00 0.08 0.00 100 1012.9
20260905071203 80 248 0.0 0.0 0.00 0.08 0.00 100 1012.9
20260905070703 80 248 0.0 0.0 0.00 0.08 0.00 100 1012.9
20260905070203 80 248 0.0 0.0 0.00 0.08 0.00 100 1013.9
20260905064703 80 248 0.0 0.0 0.00 0.08 0.00 100 1013.9
20260905064204 80 248 0.0 0.0 0.00 0.08 0.00 100 1013.9
20260905063703 80 248 0.0 0.0 0.00 0.08 0.00 100 1013.9
20260905063205 80 248 0.0 0.0 0.00 0.08 0.00 100 1013.9
20260905061703 81 248 0.0 0.0 0.00 0.08 0.00 100 1013.9
20260905061203 81 248 0.0 0.0 0.00 0.08 0.00 100 1013.9
20260905060703 81 248 0.0 0.0 0.00 0.08 0.00 100 1013.9
20260905060203 81 248 0.0 0.0 0.00 0.08 0.00 100 1013.9
20260905054203 81 248 0.0 0.0 0.00 0.08 0.00 100 1014.9
20260905053705 81 248 0.0 0.0 0.00 0.08 0.00 100 1014.9
20260905051704 81 248 0.0 0.0 0.00 0.08 0.00 99 1014.9
20260905051204 81 248 0.0 0.0 0.00 0.08 0.00 99 1014.9
20260905050705 82 248 0.0 0.0 0.00 0.08 0.00 99 1014.9
20260905044704 82 180 0.0 0.0 0.00 0.08 0.00 98 1014.9
20260905044203 82 180 0.0 0.0 0.00 0.08 0.00 99 1014.9
20260905043204 82 180 0.0 0.0 0.00 0.08 0.00 99 1014.9
20260905041704 82 180 0.0 0.0 0.00 0.08 0.00 98 1014.9
20260905041204 82 180 0.0 0.0 0.00 0.08 0.00 98 1014.9
20260905040703 82 180 0.0 0.0 0.00 0.08 0.00 98 1014.9
20260905040203 83 180 0.0 0.0 0.00 0.08 0.00 98 1014.9
20260905034705 83 180 0.0 0.0 0.00 0.08 0.08 97 1014.9
20260905034204 83 180 0.0 0.0 0.00 0.08 0.08 97 1014.9
20260905033703 83 180 0.0 0.0 0.00 0.08 0.08 97 1014.9
20260905033203 83 180 0.0 3.0 0.00 0.08 0.08 97 1014.9
20260905031704 83 196 0.0 0.0 0.00 0.08 0.08 96 1014.9
20260905031204 83 197 0.0 0.0 0.00 0.08 0.08 96 1014.9
20260905030704 83 197 0.0 0.0 0.00 0.08 0.08 95 1014.9
20260905030203 83 197 0.0 0.0 0.00 0.08 0.08 95 1014.9
20260905024704 83 198 0.0 0.0 0.00 0.08 0.08 94 1014.9
20260905024204 83 197 0.0 0.0 0.00 0.08 0.08 94 1014.9
20260905023704 83 197 0.0 0.0 0.00 0.08 0.08 94 1014.9
20260905023203 83 197 0.0 0.0 0.00 0.08 0.08 93 1014.9
20260905021704 84 197 0.0 0.0 0.00 0.08 0.08 92 1014.9
20260905021204 84 197 0.0 0.0 0.00 0.08 0.08 92 1014.9
20260905020704 84 197 0.0 0.0 0.00 0.08 0.08 92 1014.9
20260905020204 84 197 0.0 0.0 0.00 0.08 0.08 91 1014.9
20260905014704 84 198 0.0 3.0 0.00 0.08 0.08 90 1014.9
20260905013704 84 201 0.0 3.0 0.00 0.08 0.08 89 1014.9
20260905013203 84 199 0.0 2.0 0.00 0.08 0.08 89 1014.9
20260905011704 85 232 0.0 0.0 0.00 0.08 0.08 89 1014.9
20260905011204 85 232 0.0 0.0 0.00 0.08 0.08 89 1014.9
20260905010704 85 232 0.0 2.0 0.00 0.08 0.08 89 1014.9
20260905010205 85 232 0.0 2.0 0.00 0.08 0.08 89 1014.9
20260905004703 85 243 0.0 2.0 0.00 0.08 0.08 89 1014.9
20260905004204 85 239 2.0 5.0 0.00 0.08 0.08 89 1014.9
20260905003704 85 241 1.0 2.0 0.00 0.08 0.08 89 1014.9
20260905003204 86 208 0.0 3.0 0.00 0.08 0.08 89 1013.9
20260905001703 86 165 0.0 6.0 0.00 0.08 0.08 88 1013.9
20260905001204 86 201 3.0 6.0 0.00 0.08 0.08 88 1013.9
20260904234204 87 186 5.0 8.0 0.00 0.08 0.08 86 1013.9
20260904233704 87 197 3.0 7.0 0.00 0.08 0.08 85 1013.9
20260904231703 87 193 1.0 3.0 0.00 0.08 0.08 83 1013.9
20260904231204 87 172 5.0 9.0 0.00 0.08 0.08 82 1013.9
20260904230704 88 186 3.0 7.0 0.00 0.08 0.08 82 1013.9
20260904230204 88 157 5.0 12.0 0.00 0.08 0.08 81 1012.9
20260904224704 88 155 6.0 9.0 0.00 0.08 0.08 82 1012.9
20260904224203 88 162 7.0 10.0 0.00 0.08 0.08 81 1012.9
20260904223705 88 155 7.0 10.0 0.00 0.08 0.08 82 1012.9
20260904223204 89 188 9.0 13.0 0.00 0.08 0.08 82 1012.9
20260904221704 89 170 7.0 10.0 0.00 0.08 0.08 81 1012.9
20260904221203 89 188 5.0 8.0 0.00 0.08 0.08 80 1012.9
20260904220703 89 132 5.0 8.0 0.00 0.08 0.08 80 1012.9